User: anonymous   Login
Location: Beneden-Haastrecht
(52.0012°N, 4.7557°E)
Time: 09:39:40
(UTC+00:00)
Language:

Cosmos 1486 Rocket - Orbit

View from above orbital plane
View from above orbital plane
View from above satellite
View from above satellite

Ground track
Ground track

The orbit data is extracted from the following two-line orbital elements,

1 14241U 83079B   21016.40358089 -.00000029  00000-0 -95855-6 0  9997
2 14241  74.0585   4.6383 0016015 114.1446 246.1383 14.36206476960484
Epoch (UTC): 16 January 2021 09:41:09
Eccentricity: 0.0016015
inclination: 74.0585°
perigee height: 759 km
apogee height: 782 km
right ascension of ascending node: 4.6383°
argument of perigee: 114.1446°
revolutions per day: 14.36206476
mean anomaly at epoch: 246.1383°
orbit number at epoch: 96048

The dashed part of the orbit path shows where the satellite is in the earth's shadow,  

DLR